This is the latest recevied weather packets stored in our database for station/object ED2YAA-10. If no packets are shown the sender has not sent any weather packets the latest 1 day(s).
| Time | Temp. | Humidity | Pressure | Rain* | Wind** | Luminosity | Snow |
|---|---|---|---|---|---|---|---|
| 1777871502 | 20.56° C | 42% | 925.2 hPa | - | - | - | - |
| 1777870602 | 21.67° C | 40% | 925.3 hPa | - | - | - | - |
| 1777869701 | 20.56° C | 42% | 925.4 hPa | - | - | - | - |
| 1777868797 | 20.56° C | 42% | 925.3 hPa | - | - | - | - |
| 1777867894 | 20.56° C | 42% | 925.4 hPa | - | - | - | - |
| 1777866995 | 20.56° C | 42% | 925.4 hPa | - | - | - | - |
| 1777865197 | 20.56° C | 42% | 925.6 hPa | - | - | - | - |
| 1777863395 | 20.56° C | 41% | 925.9 hPa | - | - | - | - |
| 1777862494 | 20.56° C | 41% | 925.8 hPa | - | - | - | - |
| 1777861605 | 20.56° C | 41% | 925.8 hPa | - | - | - | - |
| 1777859795 | 20.56° C | 41% | 925.8 hPa | - | - | - | - |
| 1777858892 | 20.56° C | 41% | 925.7 hPa | - | - | - | - |
| 1777857992 | 20.56° C | 41% | 925.8 hPa | - | - | - | - |
| 1777857092 | 20.56° C | 41% | 925.7 hPa | - | - | - | - |
| 1777856195 | 21.11° C | 40% | 925.7 hPa | - | - | - | - |
| 1777855305 | 21.11° C | 41% | 925.6 hPa | - | - | - | - |
| 1777854392 | 21.11° C | 40% | 925.9 hPa | - | - | - | - |
| 1777853499 | 21.11° C | 40% | 926.1 hPa | - | - | - | - |
| 1777852603 | 21.11° C | 40% | 926.2 hPa | - | - | - | - |
| 1777850795 | 21.67° C | 39% | 926.2 hPa | - | - | - | - |
| 1777849894 | 21.67° C | 39% | 926.2 hPa | - | - | - | - |
| 1777849011 | 22.22° C | 38% | 926.1 hPa | - | - | - | - |
| 1777843592 | 23.89° C | 36% | 925.8 hPa | - | - | - | - |
| 1777841792 | 25° C | 35% | 925.4 hPa | - | - | - | - |
| 1777840896 | 25° C | 35% | 925.2 hPa | - | - | - | - |
* Rain since midnight (hover to see other rain measurements)
** Current wind speed in m/s (hover to see current wind gust speed)